Lid_Strength_Index
13 13 13 13 14 13 14 13 16 14 14 13 11 11 10 10 10 11 12 12 11 12 12 13 13 14 15 15 16 16 16 17 17 18 18 19 20 20 21 21 21 21 22 22
15 13 13 15 12 12 13 14 13 12 13 10 9 9 10 9 9 10 10 10 10 11 12 12 13 13 14 14 16 15 16 16 17 18 20 20 20 21 21 22 22 22 23 23
18 14 14 17 14 13 12 11 12 14 11 9 10 9 9 9 8 9 9 9 10 11 11 12 13 13 15 15 16 16 16 17 18 19 20 20 20 21 21 22 22 22 22 22
17 15 21 14 10 10 12 10 10 10 9 8 8 7 7 6 7 8 8 8 10 11 11 12 13 14 14 16 16 16 17 17 19 19 20 21 21 21 21 22 22 22 22 21
18 18 15 13 11 11 12 13 9 9 9 8 7 7 8 6 7 7 7 7 7 9 10 11 12 13 15 16 16 16 17 18 19 20 21 22 21 21 21 21 22 21 21 22
15 19 20 12 10 8 9 15 13 12 12 12 11 12 11 8 8 8 9 9 10 10 11 12 13 16 16 16 16 17 17 18 20 20 21 22 21 22 22 22 22 21 22 22
16 18 16 12 11 9 17 17 13 13 13 14 13 12 10 9 10 9 10 11 12 13 13 14 16 16 16 17 17 16 18 19 20 20 21 21 22 22 23 22 21 22 22 22
14 17 18 10 11 16 15 12 13 14 14 14 13 11 11 10 11 10 10 10 11 13 14 15 16 17 17 17 18 19 19 21 21 21 22 23 23 24 23 23 23 23 24 23
16 16 13 11 13 13 11 13 14 14 13 13 13 12 11 11 11 11 10 10 10 12 14 15 17 16 16 18 19 20 21 21 22 23 24 24 24 25 25 24 24 24 23 23
15 13 13 13 11 10 11 12 13 13 14 13 13 13 14 14 13 13 12 12 10 11 11 11 16 16 15 18 19 20 22 22 23 24 25 25 24 25 24 25 23 23 23 23
15 13 12 12 12 13 13 15 16 16 15 16 17 17 17 16 16 14 13 12 11 12 13 12 13 15 15 18 19 20 21 23 24 24 25 25 24 24 24 22 21 22 22 21
15 11 12 12 12 12 16 17 18 18 19 18 18 19 18 18 17 17 17 15 14 13 13 13 12 14 15 18 19 21 22 23 24 25 25 25 25 24 20 20 19 18 18 20
10 11 12 12 11 11 15 15 16 18 19 20 20 20 20 20 20 20 20 19 18 16 14 13 14 15 16 18 20 21 22 24 24 25 25 25 24 23 23 19 17 17 17 18
11 12 11 11 13 13 13 14 16 18 18 18 19 20 20 21 21 22 22 20 20 20 19 17 16 15 15 18 20 21 21 23 24 24 24 24 23 22 21 21 22 21 17 17
12 12 12 12 13 13 14 16 18 19 18 19 19 21 22 23 24 23 22 22 22 22 21 19 17 14 14 19 20 21 22 23 24 24 22 23 22 22 22 20 21 22 21 18
14 15 15 15 16 16 17 18 19 19 19 20 21 21 22 22 23 23 23 22 22 22 20 19 17 15 18 20 19 20 21 22 23 23 23 22 22 22 22 22 22 22 22 23
19 19 20 20 19 19 19 18 18 19 20 21 22 22 22 23 23 23 21 19 18 18 17 16 15 11 16 17 18 18 20 21 22 22 21 21 21 22 22 23 23 22 23 23
19 19 19 20 20 21 21 20 21 21 22 21 22 22 23 24 24 22 21 19 19 18 16 19 18 17 17 17 17 18 19 20 21 22 22 22 22 22 22 22 23 24 24 21
21 21 21 20 20 21 22 23 22 22 22 23 23 24 24 23 23 21 20 24 25 24 23 21 17 18 18 17 19 19 20 22 22 23 23 23 23 24 24 24 24 24 24 24
23 22 23 23 23 23 24 23 23 24 23 24 24 24 24 23 23 25 24 26 26 25 22 22 21 20 20 20 20 22 22 23 24 24 24 24 25 25 26 25 25 25 26 26
25 24 24 24 24 24 24 24 25 25 25 25 25 26 25 24 26 27 27 27 25 23 23 22 22 23 22 22 22 23 24 24 25 26 26 26 27 27 26 26 26 26 27 27
25 25 25 25 26 25 24 23 24 25 25 25 26 26 27 27 27 27 26 26 25 24 24 24 24 23 23 23 24 25 25 26 26 26 27 27 27 26 26 26 27 27 28 29
25 25 26 26 26 25 24 24 24 24 25 26 27 27 26 27 26 27 28 26 25 25 25 25 24 24 24 26 26 26 27 27 27 27 26 26 26 26 26 26 27 28 29 29
26 26 26 25 24 25 26 26 25 25 25 26 26 25 25 27 27 26 25 25 25 24 25 25 24 23 26 27 27 27 27 27 26 26 26 25 26 26 26 27 28 28 29 30
27 26 24 24 25 26 26 25 25 26 26 26 25 25 25 24 26 27 27 26 25 26 25 23 22 24 26 26 26 26 26 26 26 26 26 26 26 27 27 28 28 29 29 30
26 25 24 24 25 25 25 25 26 26 26 26 26 26 26 26 26 26 26 26 26 26 26 26 26 26 26 26 26 26 26 26 26 26 26 27 27 28 28 28 29 29 30 32
25 24 24 24 24 24 25 25 27 26 26 26 27 26 26 26 26 26 26 26 26 26 26 26 26 26 26 26 26 26 26 25 25 26 26 27 27 27 28 28 29 29 29 29